THORAD AGENA D DEB, 5146

Orbit data source: Space-Track

THORAD AGENA D DEB, 5146 is space debris in SSO originally from a launch on Wed, 08 Apr 1970 UTC launched from the Air Force Western Test Range (AFWTR). Debris objects in space refer to the collection of defunct objects orbiting the Earth. Examples of debris include non-operational satellites, rocket bodies, and fragments generated from explosions, collisions, or faulty payload assembly.

Loading next visibility...
Identifier
5146, 1970-025JQ
Orbit
SSO
Country
Flag of USUS
Related business
Manufacturer
Unknown
Mission
Spacecraft
Bus & Motor
Unknown
Mass
Unknown
Launch date (UTC)
1970-04-08 (56 years ago)
Launch vehicle
Unknown
Launch site
Air Force Western Test Range (AFWTR)
Object type
Payload
Rocket body
Debris
Shape & HBR
Unknown shape, 0.1 m
Radar Cross Section
Small (<0.1 m²)

Expand to show TLE details & history
Last TLE update: 6 hours ago

TLE from 6 hours ago
0 THORAD AGENA D DEB
1  5146U 70025JQ  26037.11147056  .00000107  00000-0  19689-3 0  9997
2  5146 100.0523 257.7786 0043114 347.1615 164.8970 13.62723158771458
Epoch: 2026-02-06T02:40Z
TLE epoch observation values (Epoch: 2026-02-06T02:40:31.056Z)
Latitude
27.39025°
Longitude
-93.36202°
Altitude
1,059.887 km
Speed
7.309 km/s
True Right ascension
05h 32m 05s
True Declination
27° 15' 21"
Sunlit
Object was in full shadow at epoch
Visualization orbit readout
Latitude
Unknown
Longitude
Unknown
Altitude
Unknown
Speed
Unknown
Apparent Right ascension
Unknown
Apparent Declination
Unknown
Sunlit
N/A
Visualization observer readout
Local Sidereal Time
10:26:21
Azimuth
Unknown
Elevation
Unknown
Doppler factor
Unknown
Orbital elements
Apogee altitude
1,055.025 km
Perigee altitude
991.205 km
Semi-major axis
7,401.252 km
Eccentricity
0.00431
Inclination
100.0523°
RAAN
257.7786°
Arg. of periapsis
347.1615°
True anomaly
165.02506°
Mean anomaly
164.897°
Eccentric anomaly
164.9611°
Mean motion
3.40867 °/min
Orbital period
105.61 mins
BSTAR
0.00019689
Loading maneuver chart data...
Computing Atmospheric mass density...

Documentation

Showing up to 5 results
|